Retour au catalogue

RASSVET-3 3

ActifSciencePO
NORAD 68362·PAYLOAD·🇷🇺 Russia

Lancé Mar 23, 2026 depuis Plesetsk Cosmodrome

Loading…

Prochains Passages (prochaines 24 heures)

TLE

FraisSource: Space-Track

Époque: Sep 14, 2026, 11:52 UTC

1 68362U 26061C   26257.49479935  .00003610  00000-0  17410-3 0  9998
2 68362  82.2923 283.1469 0000818 339.9055  20.2146 15.18418198 26994

Suivez RASSVET-3 3 en temps réel avec AllMySat

Download on the App Store